Photometre #247[Polarized_P] Martova AOT

File : 20190926_247.hum

26/09/2019,04:19:50,TEMP=4.5,BA=5.48,STAT.A
26/09/2019,04:23:51,TEMP=4.8,BA=5.56,STAT.A
26/09/2019,04:28:34,TEMP=5.4,BA=5.56,STAT.A
26/09/2019,04:34:15,TEMP=6.1,BA=5.64,STAT.A
26/09/2019,04:41:03,TEMP=6.7,BA=5.64,STAT.A
26/09/2019,04:49:29,TEMP=7.2,BA=5.64,STAT.A
26/09/2019,05:00:16,TEMP=7.5,BA=5.56,STAT.B
26/09/2019,05:05:21,TEMP=7.7,BA=5.56,STAT.A
26/09/2019,05:11:09,TEMP=8.0,BA=5.56,STAT.A
26/09/2019,05:17:42,TEMP=8.1,BA=5.56,STAT.A
26/09/2019,05:25:13,TEMP=8.4,BA=5.60,STAT.A
26/09/2019,05:33:54,TEMP=8.7,BA=5.60,STAT.C
26/09/2019,05:44:06,TEMP=8.8,BA=5.52,STAT.A
26/09/2019,05:56:17,TEMP=8.9,BA=5.60,STAT.A
26/09/2019,06:11:13,TEMP=9.4,BA=5.64,STAT.A
26/09/2019,06:24:11,TEMP=10.2,BA=5.64,STAT.F
26/09/2019,06:39:11,TEMP=12.1,BA=5.64,STAT.D
26/09/2019,06:54:11,TEMP=13.2,BA=5.64,STAT.D
26/09/2019,07:09:11,TEMP=14.6,BA=5.64,STAT.D
26/09/2019,07:24:16,TEMP=15.5,BA=5.64,STAT.F
26/09/2019,07:39:11,TEMP=16.6,BA=5.64,STAT.D
26/09/2019,07:54:13,TEMP=17.8,BA=5.64,STAT.D
26/09/2019,08:09:12,TEMP=17.7,BA=5.64,STAT.D
26/09/2019,08:24:11,TEMP=16.6,BA=5.64,STAT.F
26/09/2019,08:39:11,TEMP=18.3,BA=5.64,STAT.D
26/09/2019,08:54:11,TEMP=19.0,BA=5.64,STAT.D
26/09/2019,09:09:13,TEMP=18.5,BA=5.64,STAT.D
26/09/2019,09:24:12,TEMP=18.8,BA=5.64,STAT.E
26/09/2019,09:39:11,TEMP=20.1,BA=5.64,STAT.D
26/09/2019,09:54:12,TEMP=20.4,BA=5.64,STAT.D
26/09/2019,10:09:11,TEMP=20.5,BA=5.64,STAT.D
26/09/2019,10:24:11,TEMP=20.4,BA=5.64,STAT.F
26/09/2019,10:39:12,TEMP=20.8,BA=5.64,STAT.D
26/09/2019,10:54:12,TEMP=20.7,BA=5.64,STAT.D
26/09/2019,11:09:11,TEMP=20.9,BA=5.64,STAT.D
26/09/2019,11:24:13,TEMP=20.8,BA=5.64,STAT.F
26/09/2019,11:39:12,TEMP=21.2,BA=5.64,STAT.D
26/09/2019,11:54:12,TEMP=21.2,BA=5.64,STAT.D
26/09/2019,12:09:11,TEMP=21.7,BA=5.64,STAT.D
26/09/2019,12:24:11,TEMP=21.5,BA=5.64,STAT.F
26/09/2019,12:38:21,TEMP=21.2,BA=5.64,STAT.A
26/09/2019,12:52:04,TEMP=20.9,BA=5.64,STAT.A
26/09/2019,13:04:13,TEMP=19.9,BA=5.64,STAT.A
26/09/2019,13:14:25,TEMP=20.0,BA=5.64,STAT.C
26/09/2019,13:28:25,TEMP=20.5,BA=5.64,STAT.A
26/09/2019,13:30:39,TEMP=20.7,BA=5.60,STAT.A
26/09/2019,13:37:11,TEMP=20.5,BA=5.60,STAT.A
26/09/2019,13:42:58,TEMP=20.2,BA=5.64,STAT.A
26/09/2019,13:48:08,TEMP=20.0,BA=5.64,STAT.B
26/09/2019,14:04:56,TEMP=19.1,BA=5.64,STAT.A
26/09/2019,14:07:17,TEMP=19.0,BA=5.64,STAT.A
26/09/2019,14:14:06,TEMP=18.7,BA=5.64,STAT.A
26/09/2019,14:19:45,TEMP=18.4,BA=5.64,STAT.A
26/09/2019,14:24:29,TEMP=18.2,BA=5.64,STAT.A
26/09/2019,14:28:31,TEMP=18.1,BA=5.64,STAT.A